• En España
  • Lista de países
  • Para 7 días
  • Temperatura del agua
  • Mapa Satelital
  • El tiempo en el mapa
  • Informadores
  • user-avatar
    Iniciar sesión

    Tiempo cada hora Maloe Vyzhlyatnikovo

    Hoy, 25 Septiembre, Martes

    Tiempo Temperatura Precipitaciones Viento Presión Humedad
    00:00 +4°C° 1.1 mm 6 mps 724 mmHg 92%
    01:00 +4°C° 1.1 mm 6 mps 724 mmHg 92%
    02:00 +5°C° 1.1 mm 6 mps 725 mmHg 91%
    03:00 +4°C° 0.4 mm 6 mps 725 mmHg 90%
    04:00 +4°C° 0.4 mm 6 mps 726 mmHg 90%
    05:00 +4°C° 0.4 mm 6 mps 727 mmHg 89%
    06:00 +4°C° 0.1 mm 6 mps 728 mmHg 88%
    07:00 +4°C° 0.1 mm 6 mps 728 mmHg 87%
    08:00 +4°C° 0.1 mm 6 mps 729 mmHg 86%
    09:00 +4°C° 0 mm 6 mps 730 mmHg 84%
    10:00 +4°C° 0 mm 6 mps 731 mmHg 82%
    11:00 +5°C° 0 mm 6 mps 732 mmHg 81%
    12:00 +5°C° 0 mm 6 mps 732 mmHg 77%
    13:00 +7°C° 0 mm 6 mps 733 mmHg 73%
    14:00 +7°C° 0 mm 6 mps 734 mmHg 69%
    15:00 +7°C° 0 mm 5 mps 734 mmHg 69%
    16:00 +6°C° 0 mm 5 mps 735 mmHg 69%
    17:00 +6°C° 0 mm 4 mps 736 mmHg 70%
    18:00 +5°C° 0 mm 4 mps 736 mmHg 73%
    19:00 +4°C° 0 mm 4 mps 737 mmHg 75%
    20:00 +4°C° 0 mm 4 mps 738 mmHg 78%
    21:00 +3°C° 0 mm 4 mps 739 mmHg 77%
    22:00 +3°C° 0 mm 4 mps 739 mmHg 76%
    23:00 +3°C° 0 mm 4 mps 740 mmHg 75%

    Mañana, 26 Septiembre, Miércoles

    Tiempo Temperatura Precipitaciones Viento Presión Humedad
    00:00 +1°C° 0 mm 4 mps 740 mmHg 75%
    01:00 +1°C° 0 mm 4 mps 741 mmHg 75%
    02:00 +2°C° 0 mm 3 mps 741 mmHg 75%
    03:00 +1°C° 0 mm 3 mps 742 mmHg 77%
    04:00 +1°C° 0 mm 3 mps 742 mmHg 80%
    05:00 0°C° 0 mm 3 mps 742 mmHg 83%
    06:00 +1°C° 0 mm 3 mps 743 mmHg 81%
    07:00 +2°C° 0 mm 3 mps 743 mmHg 80%
    08:00 +3°C° 0 mm 3 mps 743 mmHg 79%
    09:00 +5°C° 0 mm 4 mps 743 mmHg 72%
    10:00 +7°C° 0 mm 4 mps 743 mmHg 64%
    11:00 +10°C° 0 mm 4 mps 743 mmHg 57%
    12:00 +10°C° 0 mm 4 mps 743 mmHg 55%
    13:00 +10°C° 0 mm 5 mps 742 mmHg 52%
    14:00 +10°C° 0 mm 5 mps 741 mmHg 50%
    15:00 +9°C° 0 mm 5 mps 741 mmHg 54%
    16:00 +8°C° 0 mm 5 mps 740 mmHg 58%
    17:00 +7°C° 0 mm 5 mps 739 mmHg 62%
    18:00 +7°C° 0.4 mm 5 mps 738 mmHg 69%
    19:00 +7°C° 0.4 mm 6 mps 737 mmHg 76%
    20:00 +5°C° 0.4 mm 7 mps 736 mmHg 83%
    21:00 +5°C° 1.4 mm 7 mps 735 mmHg 85%
    22:00 +5°C° 1.4 mm 7 mps 733 mmHg 87%
    23:00 +4°C° 1.4 mm 8 mps 732 mmHg 89%

    Pasado mañana, 27 Septiembre, Jueves

    Tiempo Temperatura Precipitaciones Viento Presión Humedad
    00:00 +5°C° 1 mm 8 mps 731 mmHg 90%
    01:00 +5°C° 1 mm 7 mps 730 mmHg 90%
    02:00 +6°C° 1 mm 7 mps 729 mmHg 90%
    03:00 +6°C° 1.3 mm 7 mps 729 mmHg 91%
    04:00 +7°C° 1.3 mm 6 mps 729 mmHg 91%
    05:00 +8°C° 1.3 mm 5 mps 729 mmHg 91%
    06:00 +8°C° 0.1 mm 5 mps 729 mmHg 89%
    07:00 +7°C° 0.1 mm 5 mps 730 mmHg 86%
    08:00 +7°C° 0.1 mm 5 mps 730 mmHg 83%
    09:00 +8°C° 0 mm 5 mps 730 mmHg 77%
    10:00 +8°C° 0 mm 6 mps 730 mmHg 71%
    11:00 +9°C° 0 mm 6 mps 731 mmHg 65%
    12:00 +9°C° 0.2 mm 6 mps 731 mmHg 64%
    13:00 +9°C° 0.2 mm 6 mps 731 mmHg 63%
    14:00 +9°C° 0.2 mm 7 mps 732 mmHg 62%
    15:00 +8°C° 0 mm 6 mps 732 mmHg 64%
    16:00 +8°C° 0 mm 5 mps 733 mmHg 66%
    17:00 +7°C° 0 mm 4 mps 733 mmHg 69%
    18:00 +6°C° 0 mm 4 mps 733 mmHg 71%
    19:00 +7°C° 0 mm 3 mps 734 mmHg 73%
    20:00 +5°C° 0 mm 3 mps 734 mmHg 75%
    21:00 +5°C° 0 mm 3 mps 735 mmHg 76%
    22:00 +4°C° 0 mm 3 mps 735 mmHg 78%
    23:00 +4°C° 0 mm 3 mps 735 mmHg 79%

    28 Septiembre, Viernes

    Tiempo Temperatura Precipitaciones Viento Presión Humedad
    00:00 +4°C° 0 mm 3 mps 735 mmHg 81%
    01:00 +3°C° 0 mm 3 mps 734 mmHg 84%
    02:00 +3°C° 0 mm 3 mps 734 mmHg 86%
    03:00 +4°C° 0.1 mm 3 mps 733 mmHg 83%
    04:00 +4°C° 0.1 mm 4 mps 732 mmHg 81%
    05:00 +5°C° 0.1 mm 5 mps 731 mmHg 78%
    06:00 +7°C° 0.6 mm 6 mps 730 mmHg 82%
    07:00 +8°C° 0.6 mm 7 mps 728 mmHg 86%
    08:00 +10°C° 0.6 mm 7 mps 727 mmHg 90%
    09:00 +10°C° 0.8 mm 8 mps 726 mmHg 88%
    10:00 +11°C° 0.8 mm 8 mps 726 mmHg 87%
    11:00 +11°C° 0.8 mm 8 mps 725 mmHg 86%
    12:00 +11°C° 0.9 mm 8 mps 726 mmHg 83%
    13:00 +11°C° 0.9 mm 7 mps 726 mmHg 81%
    14:00 +11°C° 0.9 mm 7 mps 726 mmHg 78%
    15:00 +9°C° 0.2 mm 7 mps 727 mmHg 81%
    16:00 +7°C° 0.2 mm 6 mps 728 mmHg 83%
    17:00 +6°C° 0.2 mm 5 mps 729 mmHg 85%
    18:00 +5°C° 0 mm 5 mps 731 mmHg 86%
    19:00 +4°C° 0 mm 4 mps 732 mmHg 88%
    20:00 +3°C° 0 mm 3 mps 734 mmHg 89%
    21:00 +3°C° 0 mm 2 mps 734 mmHg 92%
    22:00 +3°C° 0 mm 2 mps 735 mmHg 94%
    23:00 +2°C° 0 mm 2 mps 736 mmHg 96%

    29 Septiembre, Sábado

    Tiempo Temperatura Precipitaciones Viento Presión Humedad
    00:00 +3°C° 0 mm 1 mps 736 mmHg 97%
    01:00 +3°C° 0 mm 1 mps 737 mmHg 97%
    02:00 +2°C° 0 mm 1 mps 737 mmHg 97%
    03:00 +2°C° 0 mm 1 mps 737 mmHg 97%
    04:00 +2°C° 0 mm 1 mps 737 mmHg 96%
    05:00 +2°C° 0 mm 1 mps 738 mmHg 96%
    06:00 +3°C° 0.3 mm 1 mps 738 mmHg 94%
    07:00 +4°C° 0.3 mm 1 mps 739 mmHg 93%
    08:00 +5°C° 0.3 mm 1 mps 739 mmHg 91%
    09:00 +5°C° 0.3 mm 1 mps 740 mmHg 89%
    10:00 +5°C° 0.3 mm 1 mps 740 mmHg 86%
    11:00 +5°C° 0.3 mm 2 mps 741 mmHg 83%
    12:00 +5°C° 0.1 mm 2 mps 741 mmHg 79%
    13:00 +6°C° 0.1 mm 2 mps 741 mmHg 75%
    14:00 +6°C° 0.1 mm 2 mps 742 mmHg 71%
    15:00 +6°C° 0 mm 2 mps 742 mmHg 73%
    16:00 +5°C° 0 mm 2 mps 742 mmHg 75%
    17:00 +5°C° 0 mm 1 mps 743 mmHg 77%
    18:00 +4°C° 0 mm 1 mps 743 mmHg 78%
    19:00 +3°C° 0 mm 1 mps 744 mmHg 80%
    20:00 +2°C° 0 mm 1 mps 744 mmHg 82%
    21:00 +2°C° 0 mm 1 mps 745 mmHg 82%
    22:00 +2°C° 0 mm 1 mps 745 mmHg 82%
    23:00 +1°C° 0 mm 1 mps 745 mmHg 82%

    30 Septiembre, Domingo

    Tiempo Temperatura Precipitaciones Viento Presión Humedad
    00:00 +1°C° 0 mm 1 mps 746 mmHg 84%
    01:00 +1°C° 0 mm 1 mps 746 mmHg 86%
    02:00 +1°C° 0 mm 1 mps 746 mmHg 88%
    03:00 +1°C° 0 mm 1 mps 746 mmHg 89%
    04:00 0°C° 0 mm 1 mps 746 mmHg 91%
    05:00 0°C° 0 mm 1 mps 746 mmHg 93%
    06:00 -1°C° 0 mm 2 mps 746 mmHg 89%
    07:00 +2°C° 0 mm 2 mps 746 mmHg 85%
    08:00 +3°C° 0 mm 2 mps 746 mmHg 81%
    09:00 +3°C° 0 mm 3 mps 746 mmHg 74%
    10:00 +5°C° 0 mm 3 mps 746 mmHg 66%
    11:00 +7°C° 0 mm 4 mps 746 mmHg 59%
    12:00 +7°C° 0 mm 4 mps 745 mmHg 57%
    13:00 +8°C° 0 mm 4 mps 745 mmHg 56%
    14:00 +8°C° 0 mm 4 mps 745 mmHg 54%
    15:00 +7°C° 0 mm 4 mps 744 mmHg 60%
    16:00 +7°C° 0 mm 3 mps 744 mmHg 65%
    17:00 +5°C° 0 mm 3 mps 743 mmHg 71%
    18:00 +5°C° 0 mm 3 mps 743 mmHg 73%
    19:00 +4°C° 0 mm 3 mps 743 mmHg 74%
    20:00 +4°C° 0 mm 3 mps 743 mmHg 76%
    21:00 +4°C° 0 mm 3 mps 743 mmHg 76%
    22:00 +4°C° 0 mm 4 mps 742 mmHg 75%
    23:00 +4°C° 0 mm 4 mps 742 mmHg 75%
    Mostrar más